Weather History for KXNA - May, 2013

Change the Weather History Date:

Wednesday, May 1, 2013

  Actual Average Record
Temperature  
Mean Temperature 68 °F -  
Max Temperature 82 °F - - ()
Min Temperature 55 °F - - ()
Cooling Degree Days 2    
Growing Degree Days 18 (Base 50)    
Moisture  
Dew Point 56 °F    
Average Humidity 66    
Maximum Humidity 83    
Minimum Humidity 43    
Precipitation  
Precipitation 0.00 in - - ()
Sea Level Pressure  
Sea Level Pressure 29.95 in    
Wind  
Wind Speed 6 mph (SE)    
Max Wind Speed 15 mph    
Max Gust Speed 21 mph    
Visibility 10 miles    
Events      
T = Trace of Precipitation, MM = Missing Value Source: NWS Daily Summary

Daily Weather History Graph

Daily Weather History Graph

Search for Another Location

Airport or City:

Trip Planner

Search our weather history database for the weather conditions in past years. The results will help you decide how hot, cold, wet, or windy it might be!

Date:

Astronomy

May. 01, 2013 Rise Set
Actual Time 6:23 AM CDT 8:05 PM CDT
Civil Twilight 5:56 AM CDT 8:32 PM CDT
Nautical Twilight 5:23 AM CDT 9:06 PM CDT
Astronomical Twilight 4:47 AM CDT 9:41 PM CDT
Moon 1:14 AM CDT 12:03 PM CDT
Length of Visible Light 14h 36m
Length of Day
13h 41m
Waning Gibbous, 59% of the Moon is Illuminated
May 1
Waning Gibbous
May 2
Last Quarter
May 9
New
May 17
First Quarter
May 24
Full

Hourly Weather History & Observations

Time (CDT) Temp. Heat Index Dew Point Humidity Pressure Visibility Wind Dir Wind Speed Gust Speed Precip Events Conditions
12:53 AM 60.1 °F - 50.0 °F 69% 29.86 in 10.0 mi SE 6.9 mph - N/A   Clear
2:53 AM 55.9 °F - 50.0 °F 80% 29.87 in 10.0 mi Calm Calm - N/A   Clear
3:53 AM 55.9 °F - 50.0 °F 80% 29.87 in 10.0 mi Calm Calm - N/A   Clear
4:53 AM 57.0 °F - 51.1 °F 81% 29.88 in 10.0 mi ESE 4.6 mph - N/A   Clear
5:53 AM 57.9 °F - 52.0 °F 81% 29.88 in 10.0 mi ESE 4.6 mph - N/A   Clear
7:53 AM 61.0 °F - 55.9 °F 83% 29.92 in 10.0 mi East 3.5 mph - N/A   Clear
9:53 AM 71.1 °F - 62.1 °F 73% 29.94 in 10.0 mi ESE 5.8 mph - N/A   Clear
10:53 AM 75.0 °F - 62.1 °F 64% 29.96 in 10.0 mi SSE 8.1 mph - N/A   Clear
11:53 AM 75.9 °F - 60.1 °F 58% 29.96 in 9.0 mi ESE 13.8 mph - N/A   Clear
12:53 PM 78.1 °F - 60.1 °F 54% 29.97 in 10.0 mi SE 12.7 mph - N/A   Partly Cloudy
1:53 PM 79.0 °F - 59.0 °F 50% 29.96 in 10.0 mi South 8.1 mph - N/A   Scattered Clouds
2:53 PM 80.1 °F 80.4 °F 57.0 °F 45% 29.96 in 10.0 mi ESE 9.2 mph - N/A   Mostly Cloudy
4:53 PM 80.1 °F 80.2 °F 55.9 °F 43% 29.94 in 10.0 mi SE 12.7 mph 20.7 mph N/A   Clear
5:53 PM 79.0 °F - 59.0 °F 50% 29.94 in 10.0 mi SSE 15.0 mph - N/A   Scattered Clouds
6:53 PM 75.0 °F - 57.9 °F 55% 29.96 in 10.0 mi SSE 10.4 mph - N/A   Mostly Cloudy
7:53 PM 71.1 °F - 57.9 °F 63% 29.99 in 10.0 mi South 9.2 mph - N/A   Overcast
8:53 PM 66.0 °F - 55.0 °F 68% 30.02 in 10.0 mi SSE 9.2 mph - N/A   Clear
9:53 PM 64.9 °F - 55.0 °F 70% 30.04 in 10.0 mi South 6.9 mph - N/A   Clear
10:53 PM 63.0 °F - 55.0 °F 75% 30.06 in 10.0 mi SW 4.6 mph - N/A   Clear
11:53 PM 60.1 °F - 55.0 °F 83% 30.05 in 10.0 mi Calm Calm - N/A   Clear